Overview Statistics Trail Chart Weather Telemetry Raw packets
 

This is the latest recevied weather packets stored in our database for station/object WX0ABE-13. If no packets are shown the sender has not sent any weather packets the latest 10 day(s).

<< 110 111 112 113 114 >>
Time Temp. Humidity Pressure Rain* Wind** Luminosity Snow
1787535703 30° C 49% 1015.7 hPa 0 mm - 1 W/m² -
1787535399 30° C 49% 1015.5 hPa 0 mm - 2 W/m² -
1787535099 30° C 51% 1015.6 hPa 0 mm - 3 W/m² -
1787534798 30.56° C 50% 1015.4 hPa 0 mm - 6 W/m² -
1787534492 30.56° C 49% 1015 hPa 0 mm - 9 W/m² -
1787534191 31.11° C 47% 1015.2 hPa 0 mm - 14 W/m² -
1787533888 31.11° C 45% 1015 hPa 0 mm - 21 W/m² -
1787533584 31.67° C 45% 1014.9 hPa 0 mm - 28 W/m² -
1787533280 31.67° C 44% 1014.8 hPa 0 mm - 33 W/m² -
1787532975 31.67° C 43% 1015 hPa 0 mm - 43 W/m² -
1787532670 32.22° C 43% 1014.8 hPa 0 mm - 54 W/m² -
1787532365 32.22° C 42% 1015.3 hPa 0 mm - 62 W/m² -
1787532061 32.22° C 40% 1014.9 hPa 0 mm - 54 W/m² -
1787531868 32.78° C 39% 1015 hPa 0 mm - 43 W/m² -
1787531453 32.78° C 38% 1014.9 hPa 0 mm - 47 W/m² -
1787531148 32.78° C 39% 1014.7 hPa 0 mm - 51 W/m² -
1787530844 33.33° C 39% 1014.9 hPa 0 mm - 70 W/m² -
1787530543 33.33° C 37% 1014.9 hPa 0 mm - 87 W/m² -
1787530238 33.89° C 35% 1015 hPa 0 mm - 66 W/m² -
1787529934 33.89° C 34% 1014.9 hPa 0 mm - 73 W/m² -
1787529630 33.89° C 35% 1014.9 hPa 0 mm - 97 W/m² -
1787529325 33.89° C 35% 1015 hPa 0 mm - 142 W/m² -
1787529020 33.89° C 33% 1014.9 hPa 0 mm - 99 W/m² -
1787528717 34.44° C 33% 1015 hPa 0 mm - 156 W/m² -
1787528416 34.44° C 33% 1015.3 hPa 0 mm - 151 W/m² -

* Rain latest hour (hover to see other rain measurements)
** Current wind speed in m/s (hover to see current wind gust speed)